sat.trackr.live / text

‹ back to catalog

STARLINK-5977

NORAD 56791 · 2023-078AA

PAYLOAD ACTIVE UNKNOWN

§ Identity

Operator
Country
US
Launch date
2023-05-31
Launch site
AFWTR
Launch vehicle
Mass (kg)
RCS (m²)

Purposes: comms

External: N2YO · Heavens-Above · Gunter

§ Orbital elements

Epoch: 2026-05-25T03:15:43.508736Z

Period
96.11 min
Inclination
69.9982°
Eccentricity
0.0003391
Mean motion
14.98330815 rev/d
Perigee alt
569.7 km
Apogee alt
574.4 km
Semi-major
6,950.2 km
B*
9.6561e-6
RAAN
151.6098°
Arg perigee
268.5041°
Mean anomaly
91.5730°
Rev number
16,413

§ Raw data

STARLINK-59771 56791U 23078AA  26145.13592024  .00000022  00000+0  96561-5 0  99972 56791  69.9982 151.6098 0003391 268.5041  91.5730 14.98330815164137

JSON: /api/v1/satellites/56791 · /tle

For live sub-satellite position, see the globe view (requires WebGL).

§ Visibility from observer

Set your observer location to see the next 7 days of passes ≥ 10°. The values pass through the URL so the page stays shareable.

No JS? Fill the form by hand. The geolocation button needs JavaScript.